Portada
METAR-TAF:

METAR-TAF

Aeroports :

NWS Office

Majuro, Illes Marshall

latitud: 07-05N, longitud: 171-12E, altitud: 4 m

Observació

L'informe es va fer fa 40 minuts, a les 07:51 UTC
Vent 5 kt del Est
Temperatura 27°C
Humitat 84%
Pressió 1011 hPa
Visibilitat: 24.1 km
Escasses núvols a una alçada de 1400 ft, Cumulus congestus.
Núvols disperses a una alçada de 5000 ft
Cel ennuvolat a una alçada de 12000 ft
Cel cobert a una alçada de 30000 ft

METAR: PKMR 120751Z 09005KT 15SM FEW014TCU SCT050 BKN120 OVC300 27/24 A2984 RMK TCU NE SLP108 T02720244

Hora: 20:31 (08:31 UTC)


TAF: manca

Observacions i pronòstics meteorològics de més de 4000 aeroports (METAR i TAF).

Les estacions disponibles són els punts grocs i vermells al mapa.

Posi el ratolí al punt desitjat per veure el nom de l'estació.

Feu clic per veure les observacions i els pronòstics meteorològics.

Per canviar el mapa: feu clic els botons verds amb una creu de color negre per apropar; al botó verd amb un guió per allunyar la imatge; o en les fletxes verdes per a mapes adjacents.


METAR-TAF: